Waarnemingen

Advertentie
Mijn weer
Ronchi Dei Legionari, Italië (16108): temperatuur & dauwpunt: 19.02.2018 06:00:00 - 25.02.2018 06:00:00 (CET)Ronchi Dei Legionari, Italië (16108): windsnelheid: 19.02.2018 06:00:00 - 25.02.2018 06:00:00 (CET)Ronchi Dei Legionari, Italië (16108): windrichting: 19.02.2018 06:00:00 - 25.02.2018 06:00:00 (CET)Ronchi Dei Legionari, Italië (16108): luchtdruk: 19.02.2018 06:00:00 - 25.02.2018 06:00:00 (CET)Ronchi Dei Legionari, Italië (16108): zicht: 19.02.2018 06:00:00 - 25.02.2018 06:00:00 (CET)Ronchi Dei Legionari, Italië (16108): neerslag: 19.02.2018 06:00:00 - 25.02.2018 06:00:00 (CET)
Datum & Tijd tt [°C] td [°C] ff [km/u] ff [kn] dd ppp [hPa] vv [km] rr [mm]
25.02.2018 06:00:00 -2,0 -13,0 22 12 O - 10 -
25.02.2018 05:00:00 -2,0 -13,0 22 12 O - 10 -
25.02.2018 04:00:00 -1,1 -11,8 22 12 O 1015,5 10 0,0
25.02.2018 03:00:00 0,0 -11,0 24 13 O - 10 -
25.02.2018 02:00:00 0,0 -9,0 28 15 O - 10 -
25.02.2018 01:00:00 0,1 -8,9 29 16 O 1015,5 10 -
25.02.2018 00:00:00 0,0 -9,0 21 11 O - 10 -
24.02.2018 23:00:00 1,0 -9,0 21 11 ONO - 10 -
24.02.2018 22:00:00 1,2 -8,8 34 18 ONO 1014,9 10 0,0
24.02.2018 21:00:00 2,0 -9,0 28 15 O - 10 -
24.02.2018 20:00:00 3,0 -9,0 28 15 O - 10 -
24.02.2018 19:00:00 3,9 -9,3 24 13 O 1013,2 10 -
24.02.2018 18:00:00 5,0 -9,0 26 14 O - 10 -
24.02.2018 17:00:00 6,0 -8,0 31 17 O - 10 -
24.02.2018 16:00:00 7,3 -6,8 34 18 O 1011,2 10 0,0
24.02.2018 15:00:00 9,0 -3,0 35 19 O - 10 -
24.02.2018 14:00:00 9,0 -2,0 29 16 O - 10 -
24.02.2018 13:00:00 8,4 -2,1 35 19 O 1011,5 10 -
24.02.2018 12:00:00 9,0 -2,0 35 19 O - 10 -
24.02.2018 11:00:00 9,0 -2,0 34 18 O - 10 -
24.02.2018 10:00:00 8,0 -2,0 29 16 O 1011,2 10 0,0
24.02.2018 09:00:00 7,0 -2,0 37 20 O - 10 -
24.02.2018 08:00:00 6,0 -2,0 16 9 O - 10 -
24.02.2018 07:00:00 5,4 -2,3 9 5 N 1010,4 10 -
24.02.2018 06:00:00 6,0 -2,0 4 2 - - 10 -
24.02.2018 05:00:00 6,0 -2,0 4 2 - - 10 -
24.02.2018 04:00:00 6,7 -1,7 8 4 - 1010,2 10 0,0
24.02.2018 03:00:00 7,0 -2,0 29 16 ONO - 10 -
24.02.2018 02:00:00 6,0 -2,0 13 7 O - 10 -
24.02.2018 01:00:00 6,6 -1,7 28 15 O 1010,5 10 -
24.02.2018 00:00:00 7,0 -1,0 11 6 ZO - 10 -
23.02.2018 23:00:00 7,0 -1,0 11 6 O - 10 -
23.02.2018 22:00:00 6,6 -0,3 4 2 - 1010,8 10 0,0
23.02.2018 21:00:00 5,0 1,0 9 5 - - 10 -
23.02.2018 20:00:00 6,0 -1,0 29 16 O - 10 -
23.02.2018 19:00:00 7,0 -2,0 29 16 O 1010,7 10 -
23.02.2018 18:00:00 7,0 -3,0 29 16 O - 10 -
23.02.2018 17:00:00 8,0 -2,0 31 17 O - 10 -
23.02.2018 16:00:00 8,0 -2,5 37 20 O 1008,8 10 0,0
23.02.2018 15:00:00 9,0 -2,0 28 15 O - 10 -
23.02.2018 14:00:00 9,0 -2,0 29 16 O - 10 -
23.02.2018 13:00:00 8,1 -1,6 26 14 O 1009,6 10 -
23.02.2018 12:00:00 8,0 -3,0 31 17 ONO - 10 -
23.02.2018 11:00:00 7,0 -2,0 26 14 ONO - 10 -
23.02.2018 10:00:00 6,3 -2,7 26 14 ONO 1010,0 10 0,0
23.02.2018 09:00:00 4,0 -1,0 8 4 - - 10 -
23.02.2018 08:00:00 3,0 0,0 5 3 NW - 10 -
23.02.2018 07:00:00 2,1 0,4 11 6 N 1009,4 10 -
23.02.2018 06:00:00 1,0 0,0 13 7 N - 10 -
23.02.2018 05:00:00 3,0 0,0 18 10 O - 10 -
23.02.2018 04:00:00 2,4 0,2 9 5 NO 1009,1 10 0,0
23.02.2018 03:00:00 3,0 -1,0 39 21 O - 10 -
23.02.2018 02:00:00 5,0 -4,0 16 9 O - 10 -
23.02.2018 01:00:00 4,8 -3,4 8 4 ONO 1009,7 10 -
23.02.2018 00:00:00 5,0 -4,0 13 7 O - 10 -
22.02.2018 23:00:00 5,0 -4,0 16 9 O - 10 -
22.02.2018 22:00:00 5,2 -3,5 21 11 ONO 1010,7 10 0,0
22.02.2018 21:00:00 6,0 -4,0 26 14 O - 10 -
22.02.2018 20:00:00 5,0 -3,0 15 8 O - 10 -
22.02.2018 19:00:00 5,5 -3,5 18 10 O 1010,0 10 -
22.02.2018 18:00:00 6,0 -3,0 21 11 O - 10 -
22.02.2018 17:00:00 6,0 -3,0 18 10 O - 10 -
22.02.2018 16:00:00 6,2 -3,1 21 11 ONO 1009,3 10 0,0
22.02.2018 15:00:00 6,0 -3,0 22 12 O - 10 -
22.02.2018 14:00:00 4,0 0,0 5 3 NNW - 10 -
22.02.2018 13:00:00 5,4 -3,2 31 17 O 1009,3 10 -
22.02.2018 12:00:00 5,0 -3,0 34 18 ONO - 10 -
22.02.2018 11:00:00 6,0 -4,0 37 20 ONO - 10 -
22.02.2018 10:00:00 5,9 -3,7 42 23 O 1008,3 10 0,0
22.02.2018 09:00:00 6,0 -3,0 28 15 ONO - 10 -
22.02.2018 08:00:00 6,0 -3,0 21 11 ONO - 10 -
22.02.2018 07:00:00 6,4 -2,7 24 13 ONO 1007,4 10 -
22.02.2018 06:00:00 7,0 -3,0 8 4 - - 10 -
22.02.2018 05:00:00 7,0 -3,0 11 6 NO - 10 -
22.02.2018 04:00:00 6,6 -3,1 13 7 ONO 1006,4 10 0,0
22.02.2018 03:00:00 7,0 -3,0 8 4 ONO - 10 -
22.02.2018 02:00:00 7,0 -3,0 15 8 NO - 10 -
22.02.2018 01:00:00 6,8 -3,1 11 6 NO 1007,7 10 -
22.02.2018 00:00:00 7,0 -3,0 16 9 NO - 10 -
21.02.2018 23:00:00 7,0 -3,0 21 11 ONO - 10 -
21.02.2018 22:00:00 6,9 -2,7 16 9 ONO 1008,7 10 0,0
21.02.2018 21:00:00 6,0 -2,0 5 3 N - 10 -
21.02.2018 20:00:00 7,0 -2,0 11 6 NO - 10 -
21.02.2018 19:00:00 6,3 -2,7 15 8 ONO 1008,9 10 -
21.02.2018 18:00:00 7,0 -3,0 13 7 NO - 10 -
21.02.2018 17:00:00 8,0 -3,0 15 8 NO - 10 -
21.02.2018 16:00:00 7,9 -2,3 16 9 ONO 1008,9 10 0,0
21.02.2018 15:00:00 8,0 -3,0 18 10 ONO - 10 -
21.02.2018 14:00:00 8,0 -3,0 26 14 ONO - 10 -
21.02.2018 13:00:00 9,1 -2,7 13 7 NO 1009,3 10 -
21.02.2018 12:00:00 7,0 -2,0 4 2 - - 10 -
21.02.2018 11:00:00 5,0 -1,0 5 3 NW - 10 -
21.02.2018 10:00:00 3,7 0,0 4 2 - 1010,3 10 0,0
21.02.2018 09:00:00 0,0 -2,0 2 1 - - 10 -
21.02.2018 08:00:00 -1,0 -4,0 4 2 - - 10 -
21.02.2018 07:00:00 -1,9 -4,7 2 1 - 1009,2 10 -
21.02.2018 06:00:00 0,0 -3,0 5 3 N - 10 -
21.02.2018 05:00:00 -1,0 -2,0 5 3 WZW - 10 -
21.02.2018 04:00:00 -0,5 -2,4 2 1 - 1009,0 10 0,0
21.02.2018 03:00:00 1,0 -2,0 8 4 NO - 10 -
21.02.2018 02:00:00 1,0 -2,0 4 2 ONO - 10 -
21.02.2018 01:00:00 0,8 -2,1 2 1 - 1009,6 10 -
21.02.2018 00:00:00 2,0 -1,0 2 1 - - 10 -
20.02.2018 23:00:00 4,0 -2,0 4 2 - - 10 -
20.02.2018 22:00:00 2,6 -0,7 5 3 ONO 1009,8 10 0,0
20.02.2018 21:00:00 2,0 -2,0 2 1 - - 10 -
20.02.2018 20:00:00 4,0 -3,0 2 1 - - 10 -
20.02.2018 19:00:00 5,0 -3,3 4 2 - 1009,3 10 -
20.02.2018 18:00:00 6,0 -3,0 22 12 OZO - 10 -
20.02.2018 17:00:00 7,0 -3,0 21 11 OZO - 10 -
20.02.2018 16:00:00 7,0 -2,6 22 12 OZO 1008,6 10 0,0
20.02.2018 15:00:00 8,0 -3,0 16 9 O - 10 -
20.02.2018 14:00:00 7,0 -3,0 11 6 O - 10 -
20.02.2018 13:00:00 7,2 -3,2 9 5 - 1009,7 10 -
20.02.2018 12:00:00 6,0 -4,0 4 2 - - 10 -
20.02.2018 11:00:00 5,0 -3,0 4 2 WNW - 10 -
20.02.2018 10:00:00 3,5 -2,0 5 3 W 1010,6 10 0,0
20.02.2018 09:00:00 1,0 -2,0 5 3 WNW - 10 -
20.02.2018 08:00:00 0,0 -3,0 4 2 NW - 10 -
20.02.2018 07:00:00 -0,3 -3,1 5 3 WNW 1010,8 10 -
20.02.2018 06:00:00 -1,0 -3,0 5 3 WNW - 10 -
20.02.2018 05:00:00 -1,0 -4,0 5 3 W - 10 -
20.02.2018 04:00:00 -0,1 -4,5 5 3 - 1011,4 10 0,0
20.02.2018 03:00:00 0,0 -4,0 9 5 WNW - 10 -
20.02.2018 02:00:00 -1,0 -4,0 8 4 NW - 10 -
20.02.2018 01:00:00 -0,3 -4,1 5 3 NNW 1013,1 10 -
20.02.2018 00:00:00 2,0 -5,0 8 4 NNO - 10 -
19.02.2018 23:00:00 3,0 -5,0 11 6 ONO - 10 -
19.02.2018 22:00:00 2,9 -5,1 13 7 ONO 1014,9 10 0,0
19.02.2018 21:00:00 3,0 -5,0 11 6 ONO - 10 -
19.02.2018 20:00:00 4,0 -5,0 22 12 O - 10 -
19.02.2018 19:00:00 3,7 -4,6 18 10 O 1015,8 10 -
19.02.2018 18:00:00 4,0 -4,0 24 13 O - 10 -
19.02.2018 17:00:00 5,0 -4,0 21 11 O - 10 -
19.02.2018 16:00:00 6,2 -3,6 29 16 O 1016,5 10 0,0
19.02.2018 15:00:00 6,0 -4,0 28 15 O - 10 -
19.02.2018 14:00:00 6,0 -4,0 29 16 O - 10 -
19.02.2018 13:00:00 6,6 -3,5 35 19 O 1018,0 10 -
19.02.2018 12:00:00 6,0 -4,0 28 15 O - 10 -
19.02.2018 11:00:00 5,0 -4,0 34 18 O - 10 -
19.02.2018 10:00:00 5,3 -4,0 31 17 O 1019,3 10 0,0
19.02.2018 09:00:00 4,0 -4,0 22 12 ONO - 10 -
19.02.2018 08:00:00 5,0 -4,0 24 13 ONO - 10 -
19.02.2018 07:00:00 4,9 -4,2 29 16 ONO 1019,4 10 -
19.02.2018 06:00:00 5,0 -4,0 26 14 ONO - 10 -

tt = temperatuur
td = dauwpunt
ff = windsnelheid
dd = windrichting
ppp = luchtdruk
vv = zicht
rr = neerslag

Weerstations in de omgeving